Regional Weather Roundup
Issued by NWS

Home | Current Version | Previous Version | Text Only | Print | Product List | Glossary Off
Versions: 1 2 3 4 5 6 7 8 9 10 11 12 13 14 15 16 17 18 19 20 21 22 23 24 25 26 27 28 29 30 31 32 33 34 35 36 37 38 39 40 41 42 43 44 45 46 47 48 49 50

000
ASUS43 KMPX 131901
RWRMN
WEATHER ROUNDUP FOR MINNESOTA
NATIONAL WEATHER SERVICE TWIN CITIES/CHANHASSEN MN
100 PM CST SAT FEB 13 2016


NOTE: "FAIR" INDICATES FEW OR NO CLOUDS BELOW 12,000 FEET WITH NO
SIGNIFICANT WEATHER AND/OR OBSTRUCTIONS TO VISIBILITY. N/A MEANS
CURRENT SKY AND/OR WEATHER CONDITIONS ARE NOT AVAILABLE.

MNZ060>063-068>070-132000-
   Twin Cities Metro

CITY           SKY/WX    TMP DP  RH WIND       PRES   REMARKS
TWIN CITIES    SUNNY      7 -10  46 SE5       30.57F WCI  -2
ST PAUL        SUNNY      7  -8  50 VRB3      30.60F
CRYSTAL        SUNNY      8  -9  45 VRB5      30.55F WCI   0
LAKEVILLE      SUNNY      3  -8  60 SE6       30.57F WCI  -8
EDEN PRAIRIE   SUNNY      8  -9  45 S7        30.56F WCI  -3
SOUTH ST PAUL  SUNNY      7  -9  46 CALM      30.58F
LAKE ELMO      FAIR       9  -9  43 CALM      30.58F
$$
MNZ001>005-007-008-013>017-022>024-027-028-132000-
   Northwest Minnesota

CITY           SKY/WX    TMP DP  RH WIND       PRES   REMARKS
BEMIDJI        SUNNY      3 -12  48 SE10      30.41F WCI -12
HALLOCK        CLOUDY     3  -8  60 SE16      30.40F WCI -16
ROSEAU         CLOUDY     0  -9  65 E7        30.42F WCI -13
WARROAD        CLOUDY    -4 -13  65 NE7       30.43F WCI -18
THIEF RVR FALL CLOUDY     3 -24  27 SE13      30.40F WCI -14
CROOKSTON      SUNNY      3  -8  60 S13       30.42F WCI -14
FOSSTON        CLOUDY    14   0  52 E5        30.39F WCI   6
DETROIT LAKES  SUNNY      7  -6  56 S15       30.39F WCI -11
MOORHEAD       SUNNY      9  -4  56 S20       30.40F WCI -11
PARK RAPIDS    SUNNY      5 -12  45 SE9       30.40F WCI  -9
MAHNOMEN       FAIR       7  -8  49 S9        30.40F WCI  -7
$$
MNZ006-009>011-018-025>026-132000-
   North Central Minnesota

CITY           SKY/WX    TMP DP  RH WIND       PRES   REMARKS
BAUDETTE       CLOUDY     1 -15  47 SE3       30.43F
FLAG ISLAND    CLOUDY    -8 -17  65 SE9       30.44F WCI -25
INTL FALLS     FLURRIES   1 -15  47 CALM      30.46F
WASKISH        SUNNY      1  -9  60 W5        30.44F WCI  -8
LONGVILLE      SUNNY      7 -13  40 SE6       30.45F WCI  -3
GRAND RAPIDS   SUNNY      3 -11  51 CALM      30.47F
CRANE LAKE     SUNNY      0 -17  46 NE1       30.50F
ORR            SUNNY      1 -20  35 CALM      30.43F
COOK           SUNNY      1 -17  42 CALM      30.46F
WALKER         FAIR       0 -13  53 E6        30.44F WCI -11
$$
MNZ012-019>021-037-132000-
   Northeast Minnesota

CITY           SKY/WX    TMP DP  RH WIND       PRES   REMARKS
DULUTH         SUNNY      5 -15  39 N5        30.46F WCI  -4
ELY            SUNNY      1 -15  46 CALM      30.43F
HIBBING        SUNNY      2 -15  45 NW5       30.46F WCI  -8
EVELETH        SUNNY      3 -17  39 CALM      30.46F
DULUTH HARBOR  SUNNY      5 -13  43 SW8       30.56F WCI  -8
TWO HARBORS    SUNNY     10  -8  44 SW8       30.46F WCI  -1
SILVER BAY     SUNNY      7  -6  56 SE7       30.46S WCI  -5
GRAND MARAIS     N/A      6  -4  63 S8        30.51F WCI  -7
G MARAIS ARPRT SUNNY      1 -17  42 W6        30.37F WCI -10
$$
MNZ029>031-032-039>041-046>048-054>057-064-132000-
   West Central Minnesota

CITY           SKY/WX    TMP DP  RH WIND       PRES   REMARKS
FERGUS FALLS   SUNNY      9  -6  52 SE15      30.44F WCI  -8
WHEATON        CLOUDY     9   1  72 SE18      30.43F WCI -10
MORRIS         CLOUDY     9   0  66 SE18      30.42F WCI -10
ALEXANDRIA     SUNNY      6  -7  54 SE13      30.42F WCI -10
ELBOW LAKE     FAIR       8  -4  58 E16       30.41F WCI -10
WADENA         SUNNY      3  -9  55 SE12      30.42F WCI -13
GLENWOOD       SUNNY      7  -6  56 SE13      30.43F WCI  -9
APPLETON       CLOUDY     9  -2  61 SE9G17    30.45F WCI  -5
BENSON         MOSUNNY   10  -4  52 S12       30.44F WCI  -4
ORTONVILLE     CLOUDY     5  -2  72 SE13G20   30.42F WCI -12
MADISON        CLOUDY     9   0  66 S16       30.45F WCI  -9
WILLMAR        FAIR      10   0  61 SE13G18   30.47F WCI  -5
$$
MNZ033>034-036-042>043-049>051-058-059-132000-
   Central Minnesota

CITY           SKY/WX    TMP DP  RH WIND       PRES   REMARKS
ST CLOUD       SUNNY      4  -9  55 SE9       30.52F WCI -10
SAUK CENTRE    FAIR       5  -6  60 SE10      30.47F WCI -10
PAYNESVILLE    SUNNY      8  -6  52 SE10      30.48F WCI  -6
AITKIN         SUNNY      7 -17  33 SE3       30.48F
PINE RIVER     SUNNY      3 -11  51 SE7       30.48F WCI  -9
BRAINERD       SUNNY      3 -12  49 S10       30.48F WCI -12
STAPLES        SUNNY      5 -11  47 SE7       30.44F WCI  -7
LONG PRAIRIE   FAIR       1  -9  60 E7        30.48F WCI -11
LITTLE FALLS   SUNNY      3 -11  51 S3        30.51F
LITCHFIELD     SUNNY      9  -4  56 SE7       30.50F WCI  -3
BUFFALO        SUNNY      7 -10  45 CALM      30.55F
MAPLE LAKE     SUNNY      8  -6  52 SE6       30.54F WCI  -2
$$
MNZ037-044-045-052-053-132000-
   East Central Minnesota

CITY           SKY/WX    TMP DP  RH WIND       PRES   REMARKS
PRINCETON      SUNNY      7  -9  47 CALM      30.54F
MORA           SUNNY      7  -9  47 CALM      30.55F
CAMBRIDGE      SUNNY      7  -8  51 CALM      30.54F
MOOSE LAKE     SUNNY      5 -15  39 W3        30.50F
HINCKLEY       FAIR       5  -9  51 S6        30.53F WCI  -6
CLOQUET        SUNNY      5 -18  33 NW5       30.48F WCI  -4
MCGREGOR       SUNNY      5 -13  43 CALM      30.49F
$$
MNZ071>073-080-081-089-090-097-098-132000-
   Southwest Minnesota

CITY           SKY/WX    TMP DP  RH WIND       PRES   REMARKS
MONTEVIDEO     CLOUDY     9  -2  61 S13       30.47F WCI  -7
GRANITE FALLS  CLOUDY     9   1  70 SE15      30.49F WCI  -8
CANBY          CLOUDY    11   2  65 E12G18    30.43F WCI  -3
MARSHALL       CLOUDY     8  -1  66 S16       30.44F WCI -10
REDWOOD FALLS  CLOUDY     5  -3  69 SE14      30.49F WCI -12
OLIVIA         CLOUDY    10   0  61 SE13      30.48F WCI  -5
PIPESTONE      CLOUDY     7  -8  51 S13G18    30.36F WCI  -9
WINDOM         CLOUDY     7  -2  66 SE12      30.44F WCI  -9
WORTHINGTON    CLOUDY     3  -4  72 SE15      30.43F WCI -15
JACKSON        CLOUDY     7  -4  61 SE10      30.45F WCI  -8
TRACY          CLOUDY     8  -1  69 S12G18    30.44F WCI  -8
SLAYTON        CLOUDY     6  -1  75 SE13      30.42F WCI -11
$$
MNZ065>067-074>077-082>085-091>093-132000-
   South Central Minnesota

CITY           SKY/WX    TMP DP  RH WIND       PRES   REMARKS
MANKATO        CLOUDY     3  -6  66 S8        30.54F WCI -10
NEW ULM        CLOUDY     3  -8  60 SE12      30.51F WCI -13
ST JAMES       CLOUDY     7   0  72 SE12      30.51F WCI  -9
FAIRMONT       CLOUDY     7  -2  66 S12       30.49F WCI  -9
GLENCOE        SUNNY      9  -4  56 SE7       30.52F WCI  -2
FARIBAULT      SUNNY      7  -8  51 S1        30.56F
OWATONNA       SUNNY      9  -8  47 SW3       30.53F
WASECA         CLOUDY     7  -4  61 SE3       30.55F
ALBERT LEA     CLOUDY     7  -6  56 SE6       30.52F WCI  -3
$$
MNZ078>079-086>088-094>096-132000-
   Southeast Minnesota

CITY           SKY/WX    TMP DP  RH WIND       PRES   REMARKS
ROCHESTER      SUNNY      2  -8  63 CALM      30.54F
RED WING       SUNNY      7 -15  36 CALM      30.59F
STANTON        SUNNY      7  -9  48 SW3       30.56F
DODGE CENTER   SUNNY     12  -8  40 CALM      30.52F
WINONA         SUNNY     10  -9  40 CALM      30.61F
AUSTIN         CLOUDY     1  -9  60 SE5       30.53F WCI  -8
PRESTON        SUNNY      4 -11  50 CALM      30.55F
$$
ABBREVIATIONS USED IN REMARKS
   TC - TEMPERATURES IN CELSIUS
  WCI - WIND CHILL INDEX
   HX - HEAT INDEX
  VSB - VISIBILITY
$$



USA.gov is the U.S. government's official web portal to all federal, state and local government web resources and services.